FW0153 Weather Reports


time (UTC)temp
C
wind
direction
speed
KPH
gust
KPH
rain 1hr
cm
rain 24hr
cm
rain mn
cm
humidity
%
barometer
mb
20260508220505 27 81 6.4 0.0 0.00 0.36 0.00 71 1007.6
20260508220212 27 77 0.0 0.0 0.00 0.36 0.00 71 1007.9
20260508215505 27 47 0.0 0.0 0.00 0.36 0.00 71 1007.9
20260508215005 27 59 0.0 0.0 0.00 0.36 0.00 71 1007.9
20260508214505 27 58 6.4 0.0 0.00 0.36 0.00 70 1008.2
20260508214005 28 60 6.4 0.0 0.00 0.36 0.00 69 1008.2
20260508213505 28 63 0.0 0.0 0.00 0.36 0.00 70 1008.2
20260508213005 28 41 6.4 0.0 0.00 0.36 0.00 70 1008.6
20260508212505 28 97 0.0 0.0 0.00 0.36 0.00 69 1008.6
20260508212005 28 91 6.4 0.0 0.00 0.36 0.00 67 1008.9
20260508211505 27 1 6.4 0.0 0.00 0.36 0.00 70 1008.6
20260508211005 27 70 6.4 0.0 0.00 0.36 0.00 70 1008.9
20260508210504 28 97 6.4 0.0 0.00 0.36 0.00 68 1008.9
20260508210214 28 16 0.0 0.0 0.00 0.36 0.00 67 1008.9
20260508205505 29 93 6.4 0.0 0.00 0.36 0.00 63 1008.6
20260508205005 28 70 20.9 0.0 0.00 0.36 0.00 65 1008.9
20260508204505 28 84 0.0 0.0 0.00 0.36 0.00 68 1008.9
20260508204005 28 164 14.5 0.0 0.00 0.36 0.00 67 1009.3
20260508203505 28 81 6.4 0.0 0.00 0.36 0.00 68 1009.3
20260508203005 28 88 0.0 0.0 0.00 0.36 0.00 69 1009.3
20260508202505 28 146 14.5 0.0 0.00 0.36 0.00 70 1009.3
20260508202005 28 72 6.4 0.0 0.00 0.36 0.00 69 1009.3
20260508201505 28 80 6.4 0.0 0.00 0.36 0.00 68 1009.6
20260508201005 28 42 6.4 0.0 0.00 0.36 0.00 70 1009.6
20260508200505 28 77 0.0 0.0 0.00 0.36 0.00 67 1009.6
20260508200211 28 58 0.0 0.0 0.00 0.36 0.00 71 1009.6
20260508195505 28 140 20.9 0.0 0.00 0.36 0.00 69 1009.6
20260508195005 27 72 14.5 0.0 0.00 0.36 0.00 68 1009.9
20260508194712 27 7 6.4 0.0 0.00 0.36 0.00 74 1009.9
20260508194005 28 15 6.4 0.0 0.00 0.36 0.00 71 1009.9
20260508193505 28 9 0.0 0.0 0.00 0.36 0.00 72 1010.3
20260508193005 27 68 14.5 0.0 0.00 0.36 0.00 71 1010.3
20260508192505 27 249 14.5 0.0 0.00 0.36 0.00 72 1010.3
20260508192004 27 65 6.4 0.0 0.00 0.36 0.00 72 1010.3
20260508191505 27 42 0.0 0.0 0.00 0.36 0.00 74 1010.6
20260508191005 27 326 6.4 0.0 0.00 0.36 0.00 73 1010.6
20260508190505 27 58 14.5 0.0 0.00 0.36 0.00 73 1010.6
20260508190213 26 318 6.4 0.0 0.00 0.36 0.00 75 1010.6
20260508185504 26 13 14.5 0.0 0.00 0.36 0.00 76 1011.0
20260508185005 26 242 20.9 0.0 0.00 0.36 0.00 77 1011.0
20260508184505 26 337 6.4 0.0 0.00 0.36 0.00 78 1011.3
20260508184005 26 14 6.4 0.0 0.00 0.36 0.00 79 1011.0
20260508183505 25 314 14.5 0.0 0.00 0.36 0.00 79 1011.3
20260508183005 25 322 20.9 0.0 0.00 0.36 0.00 81 1011.3
20260508182505 25 39 6.4 0.0 0.00 0.36 0.00 81 1011.3
20260508182005 25 225 6.4 0.0 0.00 0.36 0.00 82 1011.6
20260508181505 25 340 20.9 0.0 0.00 0.36 0.00 82 1011.6
20260508181212 25 22 14.5 0.0 0.00 0.36 0.00 83 1011.3
20260508180505 23 345 6.4 0.0 0.00 0.36 0.00 86 1011.6
20260508180005 23 345 6.4 0.0 0.00 0.36 0.00 85 1011.3
20260508054005 21 149 6.4 0.0 0.00 0.05 0.00 95 1015.7
20260508053505 21 181 20.9 0.0 0.00 0.05 0.00 95 1015.7
20260508053004 21 176 14.5 0.0 0.13 0.05 0.00 95 1015.4
20260508052505 21 203 6.4 0.0 0.13 0.05 0.00 95 1014.4
20260508052005 21 106 0.0 0.0 0.00 0.03 0.00 95 1013.7
20260508051712 21 134 6.4 0.0 0.18 0.03 0.00 95 1013.3
20260508051008 21 76 0.0 0.0 0.18 0.03 0.00 95 1013.3
20260508050712 21 58 6.4 0.0 0.00 0.00 0.00 95 1013.7
20260508045712 21 46 6.4 0.0 0.00 0.00 0.00 95 1014.4
20260508045005 21 115 0.0 0.0 0.00 0.00 0.00 95 1014.0
20260508044504 21 76 0.0 0.0 0.00 0.00 0.00 95 1014.0
20260508044005 21 54 0.0 0.0 0.00 0.00 0.00 94 1013.7
20260508043505 21 144 6.4 0.0 0.00 0.00 0.00 94 1013.7
20260508043005 21 99 0.0 0.0 0.00 0.00 0.00 94 1014.0
20260508042505 21 105 6.4 0.0 0.00 0.00 0.00 94 1014.0
20260508042005 21 59 6.4 0.0 0.00 0.00 0.00 94 1014.0
20260508041505 21 49 0.0 0.0 0.00 0.00 0.00 93 1014.4
20260508041005 21 81 0.0 0.0 0.00 0.00 0.00 93 1014.4
20260508040505 21 88 6.4 0.0 0.00 0.00 0.00 93 1014.4
20260508040005 21 109 6.4 0.0 0.00 0.00 0.00 93 1014.4
20260508035505 21 64 0.0 0.0 0.00 0.00 0.00 93 1014.0
20260508035005 21 351 6.4 0.0 0.00 0.00 0.00 93 1014.4
20260508034505 21 323 20.9 0.0 0.00 0.00 0.00 93 1014.4
20260508034005 21 58 37.0 0.0 0.00 0.00 0.00 92 1014.0
20260508033713 21 31 6.4 0.0 0.00 0.00 0.00 92 1014.4
20260508033005 21 39 6.4 0.0 0.00 0.00 0.00 92 1014.4
20260508032505 21 34 6.4 0.0 0.00 0.00 0.00 92 1014.4
20260508032004 21 68 6.4 0.0 0.00 0.00 0.00 92 1014.4
20260508031505 21 70 6.4 0.0 0.00 0.00 0.00 91 1014.4
20260508031005 21 286 14.5 0.0 0.00 0.00 0.00 91 1014.0
20260508030505 21 320 6.4 0.0 0.00 0.00 0.00 91 1014.0
20260508030005 21 113 14.5 0.0 0.00 0.00 0.00 91 1014.0
20260508025505 21 46 6.4 0.0 0.00 0.00 0.00 91 1013.7
20260508025005 21 41 20.9 0.0 0.00 0.00 0.00 90 1014.0
20260508024505 21 302 20.9 0.0 0.00 0.00 0.00 90 1014.0
20260508024005 21 24 14.5 0.0 0.00 0.00 0.00 90 1013.7
20260508023713 21 277 29.0 0.0 0.00 0.00 0.00 90 1014.0
20260508023005 21 28 6.4 0.0 0.00 0.00 0.00 90 1014.4
20260508022505 21 47 20.9 0.0 0.00 0.00 0.00 89 1014.4
20260508022005 21 301 20.9 0.0 0.00 0.00 0.00 89 1014.0
20260508021505 21 6 6.4 0.0 0.00 0.00 0.00 89 1014.0
20260508021005 21 355 20.9 0.0 0.00 0.00 0.00 89 1013.7
20260508020504 21 302 20.9 0.0 0.00 0.00 0.00 89 1014.0
20260508020005 21 54 29.0 0.0 0.00 0.00 0.00 89 1014.0
20260508015505 21 342 20.9 0.0 0.00 0.00 0.00 89 1014.0
20260508015005 21 16 14.5 0.0 0.00 0.00 0.00 89 1013.7
20260508014505 21 247 14.5 0.0 0.00 0.00 0.00 89 1013.3
20260508014005 21 331 29.0 0.0 0.00 0.00 0.00 89 1013.3
20260508013505 21 31 20.9 0.0 0.00 0.00 0.00 89 1013.7
20260508013006 21 44 14.5 0.0 0.00 0.00 0.00 88 1013.3
20260508012505 21 20 29.0 0.0 0.00 0.00 0.00 89 1013.3
20260508012005 21 349 14.5 0.0 0.00 0.00 0.00 89 1013.7
20260508011505 21 80 14.5 0.0 0.00 0.00 0.00 88 1013.3
20260508011211 21 25 20.9 0.0 0.00 0.00 0.00 88 1013.3
20260508010505 21 29 14.5 0.0 0.00 0.00 0.00 88 1013.3
20260508010005 21 15 6.4 0.0 0.00 0.00 0.00 87 1013.0
20260508005505 21 342 20.9 0.0 0.00 0.00 0.00 87 1012.7
20260508005213 22 31 20.9 0.0 0.00 0.00 0.00 86 1012.7
20260508004504 22 1 14.5 0.0 0.00 0.00 0.00 86 1013.0
20260508004005 22 16 6.4 0.0 0.00 0.00 0.00 86 1013.0
20260508003505 22 17 37.0 0.0 0.00 0.00 0.00 86 1012.7
20260508003213 22 67 20.9 0.0 0.00 0.00 0.00 86 1013.0
20260508002505 22 36 14.5 0.0 0.00 0.00 0.00 86 1013.0
20260508002004 22 302 37.0 0.0 0.00 0.00 0.00 85 1013.3
20260508001505 22 29 6.4 0.0 0.00 0.00 0.00 85 1013.3
20260508001005 22 304 51.5 0.0 0.00 0.00 0.00 85 1013.3
20260508000712 22 345 43.5 0.0 0.00 0.00 0.00 84 1013.0
20260508000005 22 343 14.5 0.0 0.00 0.00 0.00 84 1012.7
20260507235505 22 38 37.0 0.0 0.00 0.00 0.00 84 1012.3
20260507235005 22 301 6.4 0.0 0.00 0.00 0.00 84 1012.7
20260507234505 22 63 37.0 0.0 0.00 0.00 0.00 84 1012.3
20260507234005 22 309 37.0 0.0 0.00 0.00 0.00 84 1012.3
20260507233505 22 29 43.5 0.0 0.00 0.00 0.00 83 1012.3
20260507233005 22 333 20.9 0.0 0.00 0.00 0.00 82 1012.3
20260507232711 23 345 37.0 0.0 0.00 0.00 0.00 82 1012.3
20260507232005 23 294 14.5 0.0 0.00 0.00 0.00 82 1012.0
20260507231505 23 27 14.5 0.0 0.00 0.00 0.00 82 1012.0
20260507231212 22 64 6.4 0.0 0.00 0.00 0.00 82 1012.0
20260507230713 23 83 6.4 0.0 0.00 0.00 0.00 82 1012.3
20260507230212 23 80 20.9 0.0 0.00 0.00 0.00 82 1012.3
20260507225505 23 38 29.0 0.0 0.00 0.00 0.00 82 1012.3
20260507225212 23 8 14.5 0.0 0.00 0.00 0.00 82 1012.3
20260507224505 23 87 29.0 0.0 0.00 0.00 0.00 82 1012.3
20260507224005 23 43 14.5 0.0 0.00 0.00 0.00 81 1012.3
20260507223505 23 322 14.5 0.0 0.00 0.00 0.00 82 1012.7
20260507223005 23 40 29.0 0.0 0.00 0.00 0.00 82 1012.7
20260507222505 23 37 6.4 0.0 0.00 0.00 0.00 82 1012.3
20260507222005 23 32 37.0 0.0 0.00 0.00 0.00 81 1012.7
20260507221505 23 329 37.0 0.0 0.00 0.00 0.00 81 1012.3
20260507221005 23 333 14.5 0.0 0.00 0.00 0.00 81 1012.3